Weather History for Dillon, MT

Change the Weather History Date:

Saturday, January 19, 2013

  Actual Average Record
Temperature  
Mean Temperature 27 °F 23 °F  
Max Temperature 36 °F 33 °F 54 °F (1981)
Min Temperature 18 °F 14 °F -26 °F (1963)
Degree Days  
Heating Degree Days 38    
Month to date heating degree days 910  
Since 1 July heating degree days 3968  
Cooling Degree Days 0    
Month to date cooling degree days 0  
Year to date cooling degree days 0  
Moisture  
Dew Point 12 °F    
Average Humidity 56    
Maximum Humidity 65    
Minimum Humidity 46    
Precipitation  
Precipitation 0.00 in 0.01 in 0.13 in (1998)
Month to date precipitation 0.20 0.17  
Year to date precipitation 0.20 0.17  
Snow  
Snow 0.00 in - - ()
Snow Depth 1.00 in    
Sea Level Pressure  
Sea Level Pressure 30.38 in    
Wind  
Wind Speed 16 mph (SSW)    
Max Wind Speed 26 mph    
Max Gust Speed 31 mph    
T = Trace of Precipitation, MM = Missing Value Source: NWS Daily Summary

Daily Weather History Graph

Daily Weather History Graph

Search for Another Location

Airport:

Trip Planner

Search our weather history database for the weather conditions in past years. The results will help you decide how hot, cold, wet, or windy it might be!

Date:

Astronomy

Jan. 19, 2013 Rise Set
Actual Time 8:02 AM MST 5:19 PM MST
Civil Twilight 7:30 AM MST 5:52 PM MST
Nautical Twilight 6:54 AM MST 6:28 PM MST
Astronomical Twilight 6:18 AM MST 7:03 PM MST
Moon 11:51 AM MST (1/19) 1:36 AM MST (1/19)
Length of Visible Light 10h 22m
Length of Day
9h 16m
First Quarter, 58% of the Moon is Illuminated
Jan 19
First Quarter
Jan 26
Full
Feb 3
Last Quarter
Feb 10
New
Feb 17
First Quarter

Hourly Weather History & Observations

Time (MST) Temp. Windchill Dew Point Humidity Pressure Visibility Wind Dir Wind Speed Gust Speed Precip Events Conditions
12:53 AM 27.0 °F 16.7 °F 10.0 °F 49% 30.28 in - SSW 11.5 mph - N/A   Clear
1:53 AM 24.1 °F 12.0 °F 10.0 °F 55% 30.31 in - South 13.8 mph - N/A   Clear
2:53 AM 23.0 °F 8.7 °F 8.1 °F 53% 30.33 in - SSW 18.4 mph - N/A   Clear
3:53 AM 21.9 °F 8.7 °F 8.1 °F 55% 30.34 in - South 15.0 mph - N/A   Clear
4:53 AM 19.9 °F 6.2 °F 7.0 °F 57% 30.36 in - SSW 15.0 mph - N/A   Clear
5:53 AM 19.9 °F 5.7 °F 8.1 °F 60% 30.36 in - SSW 16.1 mph - N/A   Clear
6:53 AM 18.0 °F 3.1 °F 7.0 °F 62% 30.40 in - South 16.1 mph 20.7 mph N/A   Clear
7:53 AM 19.0 °F 4.0 °F 7.0 °F 59% 30.42 in - South 17.3 mph - N/A   Clear
8:53 AM 19.9 °F 7.3 °F 8.1 °F 60% 30.44 in - SSW 12.7 mph - N/A   Clear
9:53 AM 23.0 °F 13.1 °F 9.0 °F 55% 30.45 in - SSE 9.2 mph 19.6 mph N/A   Clear
10:53 AM 25.0 °F 11.3 °F 12.0 °F 58% 30.44 in - SSW 18.4 mph - N/A   Clear
11:53 AM 27.0 °F 13.2 °F 12.0 °F 53% 30.40 in - SSW 20.7 mph - N/A   Clear
12:53 PM 27.0 °F 14.7 °F 12.9 °F 56% 30.39 in - South 16.1 mph - N/A   Clear
1:53 PM 30.9 °F 20.2 °F 17.1 °F 57% 30.36 in - SSW 15.0 mph - N/A   Clear
2:53 PM 34.0 °F 24.6 °F 17.1 °F 50% 30.34 in - SSW 13.8 mph - N/A   Clear
3:53 PM 34.0 °F 31.0 °F 17.1 °F 50% 30.34 in - West 3.5 mph - N/A   Clear
4:53 PM 32.0 °F 19.2 °F 17.1 °F 54% 30.35 in - SW 23.0 mph - N/A   Clear
5:53 PM 30.0 °F 16.0 °F 16.0 °F 56% 30.36 in - SW 25.3 mph - N/A   Clear
6:53 PM 25.0 °F 11.7 °F 14.0 °F 63% 30.39 in - SSW 17.3 mph - N/A   Clear
7:53 PM 27.0 °F 13.5 °F 14.0 °F 58% 30.39 in - SW 19.6 mph 29.9 mph N/A   Clear
8:53 PM 25.0 °F 10.6 °F 12.9 °F 60% 30.40 in - SW 20.7 mph - N/A   Clear
9:53 PM 23.0 °F 8.3 °F 12.9 °F 65% 30.42 in - South 19.6 mph - N/A   Clear
10:53 PM 26.1 °F 12.7 °F 12.9 °F 58% 30.40 in - SSW 18.4 mph - N/A   Clear
11:53 PM 23.0 °F 9.6 °F 12.0 °F 63% 30.42 in - SSW 16.1 mph - N/A   Clear